Home > Time Zones > World Clock > Weather > Yemen > Aden > Past weeks

Flag for Yemen Weather past 2 weeks in Aden, Yemen

Now
95 °F

Passing clouds.


Feels Like: 98 °F
Forecast: 85 / 95 °F
Wind: 16 mph from West

Location: Aden

Current Time: Aug 31, 2014 at 2:18:23 PM

Latest Report: Aug 31, 2014 at 2:00 PM


Visibility: N/A

Pressure: 29.59 "Hg

Humidity: 39%

Dew point: 66 °F

Location of AdenLocation

Historic Weather in Aden — Graph

°F

Aden temperature yesterday

Maximum temperature yesterday: 93 °F (at 12:00 PM)
Minimum temperature yesterday: 84 °F (at 6:00 PM)
Average temperature yesterday: 89 °F

Past Weeks' High & Low Weather Summary

 TemperatureHumidityPressure
High100 °F (Aug 23, 4:00 PM)94% (Aug 19, 5:00 AM)29.80 "Hg (Aug 19, 5:00 AM)
Low84 °F (Aug 30, 6:00 PM)22% (Aug 17, 6:00 PM)29.50 "Hg (Aug 29, 4:00 PM)
Average90 °F51%29.64 "Hg
* Reported Aug 16 1:00 PM — Aug 31 1:00 PM, Aden, Weather by CustomWeather, © 2014

Note: Actual official high and low records may vary slightly from our data, if they occured in-between our weather recording intervals... More about our weather records

Advertising

Aden weather history for previous 24 hours

 ConditionsComfort  
Time TempWeatherWind HumidityBarometerVisibility
1:00 PM
Aug 31
95 °FPassing clouds.16 mph34%29.62 "Hg5 mi
12:00 PM95 °FSunny.14 mph34%29.65 "Hg10 mi
11:00 AM95 °FSunny.7 mph28%29.68 "Hg10 mi
10:00 AM93 °FSunny.5 mph34%29.71 "Hg10 mi
9:00 AM91 °FSunny.5 mph36%29.71 "Hg10 mi
8:00 AM88 °FSunny.3 mph40%29.71 "Hg10 mi
7:00 AM86 °FPassing clouds.No wind46%29.71 "Hg5 mi
6:00 AM84 °FScattered clouds.1 mph45%29.68 "Hg5 mi
5:00 AM84 °FPassing clouds.No wind48%29.68 "Hg5 mi
4:00 AM86 °FPassing clouds.2 mph49%29.65 "Hg5 mi
3:00 AM86 °FPassing clouds.No wind49%29.65 "Hg5 mi
2:00 AM86 °FClear.7 mph49%29.65 "Hg5 mi
1:00 AM90 °FClear.6 mph36%29.65 "Hg5 mi
12:00 AM88 °FPassing clouds.No wind40%29.65 "Hg5 mi
11:00 PM
Aug 30
88 °FPassing clouds.No wind40%29.68 "Hg5 mi
10:00 PM88 °FPassing clouds.No wind55%29.65 "Hg5 mi
9:00 PM86 °FPassing clouds.5 mph38%29.65 "Hg4 mi
8:00 PM86 °FClear.1 mph40%29.65 "Hg4 mi
7:00 PM86 °FPassing clouds.10 mph52%29.65 "Hg3 mi
6:00 PM84 °FPartly sunny.15 mph37%29.68 "Hg3 mi
5:00 PM86 °FPartly sunny.16 mph43%29.59 "Hg1 mi
4:00 PM90 °FPartly sunny.8 mph46%29.68 "Hg3 mi
3:00 PM93 °FScattered clouds.15 mph39%29.62 "Hg5 mi
Weather by CustomWeather, © 2014

See weather overviewHow to use our weather pages